User: anonymous   Login
Location: Three Oaks Observatory
(31.1535°N, 83.5955°W)
Time: 21:06:23
(UTC-04:00)
Language:

NO-84 - Orbit

View from above orbital plane
View from above orbital plane
View from above satellite
View from above satellite

Ground track
Ground track

The orbit data is extracted from the following two-line orbital elements,

1 40654U 15025D   19073.13686901  .00010688  00000-0  15360-3 0 05599
2 40654 054.9867 252.6656 0146038 078.8357 282.9049 15.45346496097515
Epoch (UTC): 14 March 2019 03:17:05
Eccentricity: 0.0146038
inclination: 54.9867°
perigee height: 331 km
apogee height: 530 km
right ascension of ascending node: 252.6656°
argument of perigee: 78.8357°
revolutions per day: 15.45346496
mean anomaly at epoch: 282.9049°
orbit number at epoch: 9751

The dashed part of the orbit path shows where the satellite is in the earth's shadow,  

DLR